Bookmark and Share
Track history (hours):
 

Continental Highway

Last reported at 2014-Apr-12 06:03 UTC. Time now 2014-Apr-17 00:54 UTC.
Position N 24°41' E 119°46'.

Length 199.9 m; beam 32.2 m.

Type: Cargo ship. MMSI: 351223000.

NotesDate/timePositionNaut miles runAvg speedWind from/ knotsBaromVisibWave heightAir tempDewpointWater temp
2014-Apr-12 06:03N 24°41' E 119°46'918.6
2014-Apr-12 05:33N 24°36' E 119°37'1817.9
2014-Apr-12 04:33N 24°25' E 119°22'1616.4
2014-Apr-12 03:33N 24°13' E 119°11'1716.7
2014-Apr-12 02:33N 24°03' E 118°56'1616.5
2014-Apr-12 01:33N 23°51' E 118°43'1716.9
2014-Apr-12 00:33N 23°40' E 118°28'1717.0
2014-Apr-11 23:33N 23°30' E 118°14'1717.4
2014-Apr-11 22:33N 23°20' E 117°59'1717.0
2014-Apr-11 21:33N 23°10' E 117°44'1616.2
2014-Apr-11 20:33N 23°01' E 117°29'1616.2
2014-Apr-11 19:33N 22°51' E 117°15'1615.9
2014-Apr-11 18:33N 22°42' E 117°01'1616.0
2014-Apr-11 17:33N 22°38' E 116°44'1615.9
2014-Apr-11 16:33N 22°34' E 116°27'1716.3
2014-Apr-11 15:31N 22°29' E 116°10'1716.5
2014-Apr-11 14:28N 22°25' E 115°52'9415.1
2014-Apr-11 08:13N 22°10' E 114°11'1 0.1
2014-Apr-11 01:16N 22°10' E 114°10'0 0.0
2014-Apr-11 00:04N 22°10' E 114°10'0 0.0
2014-Apr-10 22:28N 22°10' E 114°10'0 0.0
2014-Apr-10 20:04N 22°10' E 114°10'0 0.0
2014-Apr-10 19:22N 22°10' E 114°10'2 2.0
2014-Apr-10 18:31N 22°09' E 114°09'1111.7
2014-Apr-10 17:33N 22°07' E 113°57'9 9.3
2014-Apr-10 16:33N 22°10' E 113°47'1514.5
2014-Apr-10 15:33N 22°24' E 113°46'1413.6
2014-Apr-10 14:33N 22°37' E 113°42'1110.9
2014-Apr-10 13:33N 22°47' E 113°37'10 9.7
2014-Apr-10 12:33N 22°56' E 113°33'5 4.1
2014-Apr-10 11:25N 23°01' E 113°32'0 0.0
2014-Apr-10 10:31N 23°01' E 113°32'0 0.0
2014-Apr-10 09:25N 23°01' E 113°32'0 0.0
2014-Apr-10 08:31N 23°01' E 113°32'0 0.0
2014-Apr-10 07:25N 23°01' E 113°32'0 0.0
2014-Apr-10 06:31N 23°01' E 113°32'0 0.0
2014-Apr-10 05:31N 23°01' E 113°32'0 0.0
2014-Apr-10 04:31N 23°01' E 113°32'0 0.1
2014-Apr-10 03:33N 23°01' E 113°32'7 7.4
2014-Apr-10 02:33N 22°54' E 113°34'1010.3
2014-Apr-10 01:33N 22°44' E 113°39'1211.8
2014-Apr-10 00:33N 22°33' E 113°44'1313.0
2014-Apr-09 23:33N 22°21' E 113°48'1312.6
2014-Apr-09 22:33N 22°08' E 113°48'1 1.3
2014-Apr-09 21:33N 22°07' E 113°47'3 2.7
2014-Apr-09 20:33N 22°05' E 113°49'1312.5
2014-Apr-09 19:33N 21°53' E 113°51'1211.1
2014-Apr-09 18:29N 21°41' E 113°51'25015.4
2014-Apr-09 02:13N 23°23' E 117°58'2016.9
2014-Apr-09 01:04N 23°35' E 118°15'7815.7
2014-Apr-08 20:05N 24°30' E 119°15'915.0
2014-Apr-08 19:29N 24°36' E 119°23'1314.5
2014-Apr-08 18:34N 24°43' E 119°35'39414.5
2014-Apr-07 15:23N 30°32' E 123°01'7312.1
2014-Apr-07 09:22N 31°16' E 121°53'1113.2
2014-Apr-07 08:34N 31°20' E 121°42'3 1.2
2014-Apr-07 06:22N 31°21' E 121°39'0 0.0
2014-Apr-07 04:16N 31°21' E 121°39'0 0.0
2014-Apr-07 03:28N 31°21' E 121°39'0 0.0
2014-Apr-07 02:28N 31°21' E 121°39'0 0.0
2014-Apr-07 01:28N 31°21' E 121°39'0 0.0
2014-Apr-07 00:16N 31°21' E 121°39'0 0.0
2014-Apr-06 23:28N 31°21' E 121°39'0 0.0
2014-Apr-06 21:22N 31°21' E 121°39'0 0.0
2014-Apr-06 20:28N 31°21' E 121°39'0 0.0
2014-Apr-06 19:28N 31°21' E 121°39'0 0.0
2014-Apr-06 16:22N 31°21' E 121°39'0 0.0
2014-Apr-06 15:22N 31°21' E 121°39'0 0.0
2014-Apr-06 14:16N 31°21' E 121°39'0 0.0
2014-Apr-06 13:10N 31°21' E 121°39'0 0.0
2014-Apr-06 12:16N 31°21' E 121°39'0 0.0
2014-Apr-06 11:16N 31°21' E 121°39'0 0.0
2014-Apr-06 10:22N 31°21' E 121°39'0 0.0
2014-Apr-06 09:04N 31°21' E 121°39'0 0.4
2014-Apr-06 08:33N 31°21' E 121°39'9 8.2
2014-Apr-06 07:27N 31°17' E 121°48'41 1.3
2014-Apr-05 00:24N 31°12' E 122°36'0 0.0
2014-Apr-04 21:06N 31°12' E 122°36'0 0.0
2014-Apr-04 14:30N 31°12' E 122°36'40311.5
2014-Apr-03 03:33N 37°55' E 122°31'1615.7
2014-Apr-03 02:33N 38°01' E 122°13'2315.8
2014-Apr-03 01:05N 38°09' E 121°45'2516.6
2014-Apr-02 23:33N 38°23' E 121°18'14515.5
2014-Apr-02 14:12N 38°51' E 118°16'811.1
2014-Apr-02 13:30N 38°54' E 118°07'1212.4
2014-Apr-02 12:33N 38°57' E 117°53'6 6.3
2014-Apr-02 11:33N 39°01' E 117°46'0 0.0
2014-Apr-02 10:33N 39°01' E 117°46'0 0.0
2014-Apr-02 09:33N 39°01' E 117°46'0 0.0
2014-Apr-02 08:33N 39°01' E 117°46'0 0.0
2014-Apr-02 07:33N 39°01' E 117°46'0 0.0
2014-Apr-02 06:33N 39°01' E 117°46'  

Dump ship's entire track history

sailing weather and tide predictions

Continental Highway — H9LY — position and weather